EW4798 Weather Reports


Display with metric or nautical units.
time (UTC)temp
F
wind
direction
speed
MPH
gust
MPH
rain 1hr
in
rain 24hr
in
rain mn
in
humidity
%
barometer
mb
20260906223010 98 193 0.0 5.0 0.00 0.00 0.00 47 1007.9
20260906221509 99 193 1.0 8.0 0.00 0.00 0.00 47 1008.0
20260906220009 98 193 0.0 4.0 0.00 0.00 0.00 47 1007.9
20260906214501 98 193 2.0 7.0 0.00 0.00 0.00 48 1008.1
20260906213105 98 193 0.0 7.0 0.00 0.00 0.00 49 1008.4
20260906211556 97 193 0.0 4.0 0.00 0.00 0.00 50 1008.6
20260906210055 98 193 0.0 4.0 0.00 0.00 0.00 49 1008.9
20260906204552 98 193 1.0 5.0 0.00 0.00 0.00 49 1009.0
20260906203050 97 193 0.0 6.0 0.00 0.00 0.00 49 1009.2
20260906201549 97 194 0.0 7.0 0.00 0.00 0.00 50 1009.3
20260906200052 98 194 1.0 10.0 0.00 0.00 0.00 50 1009.5
20260906194548 97 198 1.0 7.0 0.00 0.00 0.00 50 1009.6
20260906193048 97 198 0.0 8.0 0.00 0.00 0.00 50 1009.7
20260906191558 97 198 0.0 6.0 0.00 0.00 0.00 50 1010.0
20260906190046 97 198 2.0 8.0 0.00 0.00 0.00 49 1010.1
20260906184551 97 198 0.0 6.0 0.00 0.00 0.00 51 1010.1
20260906183046 96 198 0.0 6.0 0.00 0.00 0.00 53 1010.4
20260906181541 96 198 0.0 4.0 0.00 0.00 0.00 53 1010.5
20260906180058 96 198 0.0 6.0 0.00 0.00 0.00 54 1010.7
20260906174539 95 198 0.0 6.0 0.00 0.00 0.00 56 1010.9
20260906173038 94 198 0.0 7.0 0.00 0.00 0.00 56 1011.3
20260906171533 95 200 0.0 5.0 0.00 0.00 0.00 58 1011.3
20260906170032 95 200 0.0 4.0 0.00 0.00 0.00 57 1011.5
20260906164530 93 200 0.0 4.0 0.00 0.00 0.00 59 1011.7
20260906163029 94 200 0.0 2.0 0.00 0.00 0.00 60 1011.8
20260906161527 93 201 0.0 3.0 0.00 0.00 0.00 61 1011.7
20260906160125 93 201 0.0 4.0 0.00 0.00 0.00 62 1011.7
20260906154522 92 201 0.0 5.0 0.00 0.00 0.00 62 1011.7
20260906153019 92 201 0.0 1.0 0.00 0.00 0.00 65 1011.5
20260906151514 91 201 0.0 1.0 0.00 0.00 0.00 68 1011.3
20260906150009 90 201 0.0 0.0 0.00 0.00 0.00 70 1011.2
20260906144513 89 201 0.0 1.0 0.00 0.00 0.00 72 1011.1
20260906143007 87 201 0.0 0.0 0.00 0.00 0.00 75 1011.1
20260906141559 86 201 0.0 0.0 0.00 0.00 0.00 79 1011.1
20260906140104 84 201 0.0 0.0 0.00 0.00 0.00 81 1011.3
20260906134554 83 201 0.0 0.0 0.00 0.00 0.00 85 1011.3
20260906133117 81 201 0.0 0.0 0.00 0.00 0.00 88 1011.5
20260906131611 80 201 0.0 0.0 0.00 0.00 0.00 90 1011.4
20260906130055 80 201 0.0 0.0 0.00 0.00 0.00 92 1011.2
20260906124550 78 201 0.0 0.0 0.00 0.00 0.00 95 1011.1
20260906123052 77 201 0.0 0.0 0.00 0.00 0.00 95 1011.0
20260906121550 77 201 0.0 0.0 0.00 0.00 0.00 95 1010.9
20260906120055 77 201 0.0 0.0 0.00 0.00 0.00 95 1010.7
20260906114544 77 201 0.0 0.0 0.00 0.00 0.00 95 1010.7
20260906113043 77 201 0.0 0.0 0.00 0.00 0.00 94 1010.4
20260906111541 77 201 0.0 0.0 0.00 0.00 0.00 94 1010.4
20260906110039 78 201 0.0 0.0 0.00 0.00 0.00 93 1010.3
20260906104539 78 201 0.0 0.0 0.00 0.00 0.00 93 1010.1
20260906103036 78 201 0.0 0.0 0.00 0.00 0.00 93 1010.0
20260906101535 78 201 0.0 0.0 0.00 0.00 0.00 92 1010.0
20260906100035 78 201 0.0 0.0 0.00 0.00 0.00 92 1009.9
20260906094532 79 201 0.0 0.0 0.00 0.00 0.00 91 1009.8
20260906093038 79 201 0.0 0.0 0.00 0.00 0.00 90 1009.6
20260906091529 80 201 0.0 0.0 0.00 0.00 0.00 90 1009.5
20260906090027 80 201 0.0 0.0 0.00 0.00 0.00 88 1009.4
20260906084526 80 201 0.0 0.0 0.00 0.00 0.00 87 1009.4
20260906083025 81 201 0.0 0.0 0.00 0.00 0.00 86 1009.4
20260906081527 81 201 0.0 1.0 0.00 0.00 0.00 86 1009.1
20260906080021 81 201 0.0 0.0 0.00 0.00 0.00 86 1009.2
20260906074520 81 201 0.0 0.0 0.00 0.00 0.00 85 1009.4
20260906073017 81 201 0.0 0.0 0.00 0.00 0.00 84 1009.7
20260906071514 82 201 0.0 0.0 0.00 0.00 0.00 82 1009.7
20260906070013 82 201 0.0 0.0 0.00 0.00 0.00 81 1009.8
20260906064517 82 201 0.0 0.0 0.00 0.00 0.00 81 1009.7
20260906063012 82 201 0.0 0.0 0.00 0.00 0.00 80 1009.8
20260906061511 82 201 0.0 0.0 0.00 0.00 0.00 80 1009.6
20260906060013 83 201 0.0 0.0 0.00 0.00 0.00 79 1009.7
20260906054507 83 201 0.0 0.0 0.00 0.00 0.00 79 1009.9
20260906053015 84 201 0.0 0.0 0.00 0.00 0.00 78 1009.9
20260906051502 84 201 0.0 0.0 0.00 0.00 0.00 77 1010.0
20260906050100 84 201 0.0 0.0 0.00 0.00 0.00 76 1009.9
20260906044600 85 201 0.0 0.0 0.00 0.00 0.00 74 1009.8
20260906043100 85 201 0.0 0.0 0.00 0.00 0.00 73 1009.7
20260906041559 86 201 0.0 1.0 0.00 0.00 0.00 72 1009.7
20260906040059 86 201 0.0 1.0 0.00 0.00 0.00 71 1009.6
20260906034558 87 201 0.0 0.0 0.00 0.00 0.00 69 1009.8
20260906033101 87 201 0.0 1.0 0.00 0.00 0.00 68 1009.7
20260906031601 87 201 0.0 5.0 0.00 0.00 0.00 68 1009.7
20260906030057 88 202 0.0 2.0 0.00 0.00 0.00 68 1009.7
20260906024556 88 202 0.0 3.0 0.00 0.00 0.00 67 1009.6
20260906023056 89 202 0.0 4.0 0.00 0.00 0.00 66 1009.3
20260906021559 90 202 0.0 5.0 0.00 0.00 0.00 64 1009.0
20260906020056 91 202 0.0 6.0 0.00 0.00 0.00 62 1008.8
20260906014605 91 202 0.0 8.0 0.00 0.00 0.00 60 1008.5
20260906013055 91 207 0.0 0.0 0.00 0.00 0.00 55 1008.2
20260906011606 92 207 0.0 0.0 0.00 0.00 0.00 54 1008.0
20260906010055 93 207 0.0 0.0 0.00 0.00 0.00 52 1007.9
20260906004554 94 207 0.0 0.0 0.00 0.00 0.00 50 1007.9
20260906003053 95 207 0.0 0.0 0.00 0.00 0.00 49 1007.8
20260906001559 96 207 0.0 1.0 0.00 0.00 0.00 48 1007.9
20260906000052 97 207 0.0 1.0 0.00 0.00 0.00 47 1007.7
20260905234551 97 207 0.0 3.0 0.00 0.00 0.00 47 1007.6
20260905233106 97 207 0.0 2.0 0.00 0.00 0.00 46 1007.6
20260905231555 98 207 0.0 2.0 0.00 0.00 0.00 46 1007.6
20260905230049 98 207 0.0 5.0 0.00 0.00 0.00 47 1007.6
20260905224607 98 207 0.0 4.0 0.00 0.00 0.00 46 1007.5